[[{"header":{"parameterUnit":"m.s-1","parameterCategory":1,"la1":30.2991,"la2":30.254,"lo1":-89.0895,"lo2":-89.0444,"dy":0.0017,"dx":0.0017,"nx":28,"ny":28,"refTime":"2024-06-05T03:00:00:Z","depth":0,"parameterNumber":2,"parameterNumberName":"U-component_of_WINDS"},"data":[0,0,0,0,0,0,0,0,0,0,0,0,0,0,0,0,0,0,0,0,0,0,0,0,0,0,0,0,0,0,0,0,0,0,0,0,0,0,0,0,0,0,0,0,0,0,0,0,0,0,0,0,0,0,0,0,0,0,1.062,1.062,0,1.0598,1.0598,1.0598,1.0546,1.0545,1.0544,1.0543,1.0521,1.0522,1.0522,0,0,0,0,0,0,0,0,0,0,0,0,0,1.0615,1.0615,1.062,1.062,1.0619,1.0599,1.0598,1.0598,1.0546,1.0545,1.0544,1.0542,1.0521,1.0522,1.0522,0,0,0,0,0,0,0,0,0,0,0,0,0,1.0608,1.0615,1.062,1.0591,1.0588,1.0599,1.0598,1.0598,1.0547,1.0545,1.0543,1.0542,1.0521,1.0521,1.0522,1.0559,0,0,1.0524,1.0524,0,0,0,0,0,0,0,0,1.0608,1.0608,1.0596,1.0593,1.059,1.0573,1.0588,1.0585,1.0547,1.0562,1.0543,1.0541,1.054,1.0539,1.0538,1.0558,1.0557,1.0524,1.0525,1.0525,1.0525,0,0,0,0,0,0,0,1.0609,1.0609,1.0611,1.0595,1.0592,1.0579,1.0576,1.0588,1.0561,1.0561,1.0557,1.0555,1.0538,1.0538,1.0538,1.0557,1.0524,1.0525,1.0525,1.0525,1.0603,1.0604,0,0,0,0,0,0,1.0613,1.0609,1.0612,1.0611,1.0595,1.058,1.0577,1.058,1.056,1.0556,1.0557,1.0553,1.0538,1.0537,1.0537,1.0576,1.0525,1.0525,1.0526,1.0601,1.0603,1.0605,0,0,0,0,0,0,1.0614,1.0614,1.0613,1.0609,1.0608,1.0582,1.0586,1.0581,1.058,1.0557,1.0552,1.0562,1.0536,1.0536,1.0553,1.0575,1.0526,1.0526,1.0599,1.0602,1.0604,1.0657,0,0,0,0,0,0,1.0614,1.0615,1.0629,1.061,1.0608,1.063,1.0587,1.0581,1.0582,1.0577,1.056,1.0556,1.0535,1.0552,1.0554,1.0575,1.0527,1.0597,1.06,1.0603,1.0653,1.0661,1.0668,0,0,0,0,0,1.0614,1.0645,1.063,1.063,1.0625,1.0632,1.0631,1.0606,1.0584,1.0597,1.0582,1.0557,1.0573,1.0555,1.0556,1.0577,1.0595,1.0599,1.0603,1.065,1.066,1.0668,0,0,0,0,0,0,1.0667,1.0642,1.0625,1.0651,1.0644,1.0623,1.0639,1.0617,1.0616,1.0611,1.0581,1.0577,1.0599,1.059,1.057,1.0611,1.058,1.0584,1.0615,1.0624,1.0631,1.0632,1.0527,0,0,0,0,0,1.0682,1.069,1.0667,1.0693,1.069,1.0665,1.0667,1.0648,1.064,1.0637,1.0623,1.0615,1.0618,1.0621,1.0623,1.0652,1.0647,1.0667,1.0675,1.0681,1.0684,1.0697,1.0705,1.0617,1.0617,1.0617,0,0,1.0713,1.07,1.0707,1.0703,1.0695,1.0703,1.0663,1.0674,1.0679,1.0638,1.0653,1.0643,1.0632,1.0655,1.0665,1.0649,1.0708,1.0686,1.0691,1.0691,1.0702,1.071,1.0717,1.0619,1.0619,1.0619,0,0,1.0773,1.0765,1.0783,1.0776,1.0765,1.0748,1.0753,1.0735,1.0726,1.0741,1.071,1.0716,1.0723,1.0716,1.0713,1.0769,1.0745,1.0771,1.0808,1.0821,1.0828,1.0834,1.0852,1.0859,1.0775,1.0775,1.0775,0,1.0812,1.0823,1.0796,1.0808,1.0806,1.077,1.0788,1.0783,1.0773,1.0772,1.0754,1.076,1.0751,1.0771,1.0784,1.0784,1.0788,1.0772,1.0829,1.0835,1.084,1.0857,1.0864,1.0778,1.0777,1.0777,1.0777,0,1.0871,1.0879,1.0896,1.0886,1.0886,1.0902,1.0876,1.088,1.0861,1.0846,1.0861,1.0848,1.0846,1.085,1.0832,1.0866,1.0856,1.0835,1.0803,1.0852,1.0867,1.0873,1.0782,1.0781,1.078,1.0779,0,0,1.0963,1.0938,1.0944,1.0938,1.0923,1.0928,1.0941,1.0939,1.0941,1.0936,1.0945,1.0951,1.093,1.0927,1.0908,1.092,1.0962,1.0896,1.0895,1.0907,1.0997,1.1012,1.102,1.0947,1.0948,1.0949,1.0997,0,1.1017,1.1038,1.1013,1.1039,1.1044,1.101,1.1021,1.1012,1.0999,1.1001,1.0986,1.099,1.0963,1.0961,1.0971,1.0955,1.0979,1.0951,1.0954,1.0954,1.0955,1.1028,1.1045,1.1091,1.1003,1.1004,1.1005,0,1.1083,1.1079,1.1105,1.1086,1.1088,1.1098,1.1092,1.1096,1.1085,1.1074,1.1071,1.1048,1.1058,1.1029,1.1042,1.1023,1.1023,1.1015,1.1016,1.1014,1.0981,1.1026,1.1105,1.1111,1.1014,1.1014,1.1013,0,1.1145,1.1147,1.1161,1.1158,1.1137,1.1145,1.1136,1.1124,1.1123,1.1119,1.1118,1.1115,1.1113,1.1111,1.1088,1.1069,1.1103,1.1072,1.1093,1.1094,1.1101,1.11,1.1179,1.1104,1.1104,1.1104,1.1104,0,1.1206,1.1223,1.1188,1.1198,1.1215,1.1187,1.1204,1.1193,1.1182,1.1187,1.1158,1.1164,1.1133,1.1136,1.1118,1.113,1.113,1.1121,1.1115,1.1122,1.1123,1.112,1.1116,1.1106,1.1105,1.1105,1.1105,0,1.1277,1.1255,1.1269,1.1248,1.1243,1.1256,1.1238,1.1245,1.1229,1.1236,1.1237,1.1212,1.1213,1.119,1.1187,1.1175,1.1195,1.1185,1.1198,1.1194,1.1216,1.1213,1.1293,1.1302,1.1224,1.1225,1.1225,0,1.1317,1.1329,1.1308,1.131,1.1303,1.1306,1.1304,1.1278,1.1278,1.1265,1.1274,1.1272,1.127,1.1273,1.1255,1.1252,1.124,1.1268,1.1239,1.1245,1.1238,1.1236,1.1237,1.1274,1.1275,1.1276,1.1276,0,1.1389,1.1377,1.1377,1.1372,1.1371,1.1366,1.136,1.1363,1.1333,1.1334,1.1335,1.1333,1.1329,1.1328,1.1321,1.1312,1.1289,1.1286,1.129,1.1296,1.1303,1.1297,1.1212,1.1284,1.1283,1.1283,1.1282,1.1282,1.1444,1.1452,1.1438,1.1438,1.143,1.1424,1.1429,1.1414,1.1414,1.1408,1.1393,1.1395,1.1383,1.1372,1.1365,1.1366,1.1352,1.1359,1.136,1.1362,1.1365,1.1304,1.1365,1.1365,1.1365,1.1364,1.1364,0,1.1512,1.1501,1.1502,1.1493,1.1492,1.1471,1.1462,1.1463,1.1466,1.1457,1.1454,1.1454,1.1452,1.1434,1.143,1.1434,1.1423,1.1434,1.1432,1.143,1.1379,1.1374,1.1442,1.1442,1.1442,1.1442,1.1442,1.1442,1.1547,1.1559,1.1546,1.1553,1.1542,1.1544,1.154,1.1534,1.1526,1.1527,1.1526,1.1514,1.15,1.1494,1.1492,1.1486,1.1485,1.1499,1.1489,1.1442,1.1434,1.1427,1.1422,1.1499,1.1499,1.154,1.1541,1.1541]},{"header":{"parameterUnit":"m.s-1","parameterCategory":1,"la1":30.2991,"la2":30.254,"lo1":-89.0895,"lo2":-89.0444,"dy":0.0017,"dx":0.0017,"nx":28,"ny":28,"refTime":"2024-06-05T03:00:00:Z","depth":0,"parameterNumber":3,"parameterNumberName":"V-component_of_WINDS"},"data":[0,0,0,0,0,0,0,0,0,0,0,0,0,0,0,0,0,0,0,0,0,0,0,0,0,0,0,0,0,0,0,0,0,0,0,0,0,0,0,0,0,0,0,0,0,0,0,0,0,0,0,0,0,0,0,0,0,0,4.3407,4.3409,0,4.3534,4.3535,4.3537,4.3528,4.3526,4.3524,4.3523,4.3646,4.3651,4.3656,0,0,0,0,0,0,0,0,0,0,0,0,0,4.3151,4.3155,4.3407,4.3409,4.341,4.3534,4.3536,4.3537,4.3528,4.3526,4.3524,4.3522,4.3645,4.3651,4.3657,0,0,0,0,0,0,0,0,0,0,0,0,0,4.3268,4.3157,4.3407,4.3421,4.3424,4.3533,4.3536,4.3538,4.3529,4.3526,4.3523,4.3521,4.3643,4.365,4.3658,4.376,0,0,4.3681,4.3684,0,0,0,0,0,0,0,0,4.3261,4.3277,4.3417,4.342,4.3423,4.3513,4.349,4.3612,4.353,4.3489,4.3523,4.3519,4.3604,4.3614,4.3644,4.3766,4.3771,4.3681,4.3686,4.3689,4.3691,0,0,0,0,0,0,0,4.3253,4.3272,4.3457,4.3419,4.3423,4.3419,4.3432,4.3513,4.356,4.3492,4.3492,4.3507,4.3605,4.3637,4.3647,4.3773,4.3681,4.3688,4.3693,4.3695,4.3982,4.3985,0,0,0,0,0,0,4.3243,4.3265,4.3453,4.3461,4.3334,4.3426,4.3441,4.3487,4.3559,4.3568,4.3509,4.3506,4.3625,4.3638,4.3651,4.3774,4.3689,4.3696,4.3701,4.3979,4.3983,4.3986,0,0,0,0,0,0,4.3237,4.326,4.3448,4.3363,4.3387,4.3433,4.3484,4.3491,4.3523,4.3573,4.358,4.3534,4.3624,4.3641,4.3733,4.3778,4.37,4.3706,4.3975,4.398,4.3984,4.4022,0,0,0,0,0,0,4.323,4.3258,4.3299,4.3364,4.3391,4.353,4.3487,4.3495,4.3536,4.3533,4.3598,4.3605,4.3623,4.3722,4.374,4.3787,4.3712,4.3972,4.3978,4.3983,4.4017,4.4028,4.4036,0,0,0,0,0,4.3221,4.3304,4.3301,4.3324,4.3444,4.3533,4.3548,4.3568,4.354,4.3581,4.3612,4.3603,4.3771,4.3731,4.3752,4.3802,4.3969,4.3976,4.3983,4.4013,4.4025,4.4036,0,0,0,0,0,0,4.3241,4.3313,4.3311,4.3418,4.3469,4.3531,4.3583,4.3581,4.364,4.3635,4.3655,4.367,4.3762,4.3791,4.3746,4.3904,4.3866,4.3877,4.3881,4.3894,4.3903,4.3894,4.3719,0,0,0,0,0,4.3259,4.3327,4.3384,4.3473,4.3499,4.3537,4.3576,4.3587,4.364,4.3662,4.37,4.3751,4.3814,4.3856,4.3917,4.4021,4.4034,4.4066,4.4075,4.4083,4.4092,4.4147,4.4161,4.4009,4.4009,4.4009,0,0,4.3294,4.3342,4.3383,4.3478,4.352,4.3587,4.3555,4.3628,4.3678,4.3672,4.3762,4.3792,4.3849,4.3947,4.3992,4.3974,4.4137,4.4092,4.4098,4.4103,4.4156,4.417,4.4183,4.4014,4.4013,4.4012,0,0,4.3394,4.3437,4.3515,4.3557,4.3621,4.3645,4.3663,4.3726,4.3746,4.3836,4.3833,4.3891,4.4001,4.4041,4.4076,4.4189,4.4182,4.4208,4.4259,4.4312,4.4324,4.4335,4.4373,4.4387,4.4218,4.4218,4.4218,0,4.3429,4.3533,4.3555,4.3629,4.3669,4.3669,4.3746,4.3785,4.3865,4.3892,4.3871,4.4008,4.4047,4.4153,4.4181,4.421,4.4229,4.4201,4.4321,4.4332,4.4342,4.4379,4.4393,4.422,4.422,4.422,4.422,0,4.3573,4.3645,4.37,4.3778,4.3825,4.39,4.393,4.3975,4.3981,4.4006,4.4097,4.4144,4.4214,4.424,4.4246,4.4347,4.4333,4.4317,4.4279,4.4359,4.4394,4.4408,4.4224,4.4223,4.4222,4.4222,0,0,4.369,4.3778,4.3798,4.3832,4.3902,4.3956,4.403,4.41,4.4137,4.4191,4.4252,4.4344,4.4329,4.4368,4.4379,4.4426,4.451,4.4403,4.4405,4.442,4.4621,4.4632,4.4648,4.4506,4.4509,4.4511,4.4615,0,4.3795,4.3928,4.3948,4.4065,4.4129,4.4129,4.4193,4.4241,4.4266,4.4323,4.435,4.4414,4.439,4.4414,4.446,4.449,4.455,4.4483,4.456,4.4563,4.4545,4.4667,4.4679,4.4775,4.4629,4.4631,4.4633,0,4.3936,4.3995,4.4118,4.4177,4.4205,4.4262,4.4327,4.4382,4.4435,4.445,4.4494,4.4499,4.4572,4.4531,4.4632,4.4585,4.4618,4.4637,4.4641,4.4648,4.4602,4.4675,4.4807,4.4821,4.4655,4.4653,4.4652,0,4.4006,4.4116,4.4204,4.4234,4.4305,4.4345,4.4376,4.4426,4.4467,4.4522,4.4548,4.4611,4.4645,4.4693,4.4713,4.4682,4.4811,4.4773,4.4823,4.4823,4.485,4.4848,4.4987,4.4873,4.4873,4.4873,4.4872,0,4.4121,4.4196,4.4236,4.429,4.4373,4.4394,4.4475,4.4504,4.4549,4.4606,4.4609,4.4662,4.4687,4.4743,4.4759,4.4838,4.4854,4.4866,4.4869,4.4866,4.4864,4.4886,4.488,4.4877,4.4876,4.4875,4.4874,0,4.4213,4.4244,4.4339,4.4398,4.4415,4.4473,4.4523,4.4573,4.4598,4.467,4.4688,4.4726,4.4792,4.4818,4.4898,4.4909,4.5,4.4998,4.4982,4.4983,4.5031,4.5026,4.5189,4.5211,4.5084,4.5085,4.5086,0,4.4284,4.4342,4.4407,4.4447,4.448,4.4543,4.4584,4.4607,4.4649,4.4713,4.4755,4.4822,4.4876,4.4981,4.5014,4.5075,4.5074,4.5127,4.5083,4.5077,4.5073,4.5069,4.5073,4.5135,4.5136,4.5137,4.5138,0,4.4406,4.4418,4.4478,4.4543,4.4592,4.4644,4.4695,4.4726,4.4756,4.4803,4.4871,4.4913,4.4996,4.5061,4.5123,4.5152,4.5149,4.5151,4.5166,4.5162,4.515,4.5155,4.5003,4.5147,4.5146,4.5146,4.5145,4.5145,4.4489,4.4539,4.4593,4.4659,4.47,4.4746,4.4796,4.4827,4.4885,4.4955,4.4964,4.5037,4.5086,4.517,4.5202,4.5257,4.5243,4.5265,4.527,4.5275,4.5277,4.5142,4.5269,4.5269,4.5268,4.5268,4.5268,0,4.4609,4.4643,4.4704,4.4775,4.4826,4.4821,4.4876,4.4919,4.4983,4.5031,4.5084,4.5161,4.5224,4.5262,4.5324,4.5361,4.5361,4.5376,4.5373,4.5379,4.5287,4.5268,4.5375,4.5375,4.5375,4.5375,4.5375,4.5375,4.4678,4.4762,4.478,4.4883,4.4917,4.499,4.5021,4.5063,4.5101,4.5188,4.524,4.5265,4.5308,4.5373,4.5429,4.5438,4.546,4.5476,4.5484,4.5397,4.5386,4.5376,4.5357,4.5481,4.5482,4.5571,4.5572,4.5573]}]]